Friday Harbor, WA
on Tuesday, December 11, 2012

Tuesday
Previous Day Next Day
Daily Summary
 ActualAverageRecord
Temperature
Mean Temperature °F °F  
Max Temperature 46°F 44°F 52°F (2006)
Min Temperature 42°F 36°F 24°F (2000)
Degree Days
Heating Degree Days 21    
Moisture
Dew Point 41°F   
Average Humidity 90    
Maximum Humidity 100    
Minimum Humidity 81    
Precipitation
Precipitation 0.02 in in in ()
Wind
Wind Speed 7 mph   
Max Wind Speed 16 mph   
Max Gust Speed 22 mph   
Visibility 10 miles   
Events Rain   
Averages and records for this station are not official NWS values.
Key: T is trace of precipitation, MM is missing value
Source: NWS Daily Summary
Seasonal Weather Averages
Time(PST)TemperatureDew PointHumidity Pressure Visibility Wind DirectionWind SpeedGust SpeedPrecipitationEvents Conditions
12:27 AM 42.8°F 39.2°F 87% 30.04 in 10.0 miles SE 9.2 mph - N/A   Mostly Cloudy
12:34 AM 42.8°F 39.2°F 87% 30.03 in 10.0 miles SSE 8.1 mph - N/A   Mostly Cloudy
12:53 AM 43.0°F 39.9°F 89% 30.01 in 10.0 miles South 5.8 mph - N/A   Overcast
1:53 AM 43.0°F 39.0°F 86% 29.98 in 10.0 miles SE 6.9 mph - N/A   Mostly Cloudy
2:32 AM 42.8°F 39.2°F 87% 29.95 in 10.0 miles East 6.9 mph - N/A   Scattered Clouds
2:53 AM 43.0°F 39.9°F 89% 29.94 in 10.0 miles East 3.5 mph - N/A   Partly Cloudy
3:53 AM 43.0°F 39.0°F 86% 29.90 in 10.0 miles East 8.1 mph - N/A   Partly Cloudy
4:53 AM 43.0°F 39.0°F 86% 29.85 in 10.0 miles ESE 10.4 mph - N/A   Scattered Clouds
5:53 AM 44.1°F 39.9°F 85% 29.80 in 10.0 miles ESE 9.2 mph - N/A   Mostly Cloudy
6:20 AM 42.8°F 39.2°F 87% 29.77 in 10.0 miles SE 9.2 mph - N/A   Overcast
6:53 AM 43.0°F 39.0°F 86% 29.78 in 10.0 miles ESE 9.2 mph - N/A   Overcast
7:22 AM 42.8°F 39.2°F 87% 29.76 in 10.0 miles SE 11.5 mph - N/A   Overcast
7:44 AM 44.6°F 39.2°F 81% 29.75 in 10.0 miles ESE 12.7 mph - N/A   Overcast
7:53 AM 44.1°F 39.9°F 85% 29.74 in 10.0 miles ESE 11.5 mph - N/A   Overcast
8:53 AM 44.1°F 39.9°F 85% 29.70 in 10.0 miles ESE 12.7 mph - N/A   Overcast
9:53 AM 44.1°F 41.0°F 89% 29.68 in 10.0 miles ESE 12.7 mph - N/A   Overcast
10:53 AM 45.0°F 39.9°F 82% 29.64 in 10.0 miles SE 16.1 mph 21.9 mph N/A   Overcast
11:53 AM 45.0°F 41.0°F 86% 29.61 in 8.0 miles SE 12.7 mph 21.9 mph 0.00 in Rain Light Rain
12:53 PM 45.0°F 41.0°F 86% 29.58 in 9.0 miles SE 10.4 mph - 0.01 in Rain Light Rain
1:22 PM 44.6°F 42.8°F 93% 29.57 in 8.0 miles ESE 11.5 mph - 0.01 in Rain Light Rain
1:53 PM 45.0°F 42.1°F 90% 29.55 in 9.0 miles ESE 9.2 mph - 0.01 in Rain Light Rain
2:20 PM 46.4°F 42.8°F 87% 29.54 in 10.0 miles ESE 9.2 mph - 0.00 in   Overcast
2:53 PM 46.0°F 42.1°F 86% 29.54 in 10.0 miles SE 6.9 mph - 0.00 in   Overcast
3:06 PM 44.6°F 42.8°F 93% 29.54 in 10.0 miles ESE 6.9 mph - 0.00 in   Overcast
3:53 PM 44.1°F 41.0°F 89% 29.54 in 10.0 miles Calm Calm - 0.00 in   Overcast
4:53 PM 43.0°F 41.0°F 93% 29.55 in 10.0 miles Calm Calm - N/A   Overcast
5:53 PM 44.1°F 41.0°F 89% 29.55 in 10.0 miles Calm Calm - N/A   Overcast
6:53 PM 45.0°F 42.1°F 90% 29.55 in 10.0 miles SSE 3.5 mph - N/A   Overcast
7:31 PM 44.6°F 42.8°F 93% 29.55 in 4.0 miles South 4.6 mph - 0.00 in Rain Light Rain
7:53 PM 44.1°F 43.0°F 96% 29.56 in 8.0 miles Calm Calm - 0.00 in   Overcast
8:29 PM 42.8°F 42.8°F 100% 29.56 in 10.0 miles Calm Calm - N/A   Overcast
8:53 PM 42.1°F 41.0°F 96% 29.57 in 10.0 miles Calm Calm - N/A   Overcast
9:53 PM 43.0°F 42.1°F 97% 29.58 in 9.0 miles Calm Calm - N/A   Overcast
10:26 PM 42.8°F 42.8°F 100% 29.58 in 10.0 miles Calm Calm - N/A   Overcast
10:53 PM 43.0°F 42.1°F 97% 29.59 in 10.0 miles Calm Calm - N/A   Overcast
11:27 PM 42.8°F 42.8°F 100% 29.60 in 10.0 miles Calm Calm - N/A   Overcast
11:53 PM 43.0°F 42.1°F 97% 29.60 in 10.0 miles Calm Calm - N/A   Overcast
Moon Phase
Dec. 11 Dec. 13 Dec. 20 Dec. 28 Jan. 04
Sunrise:07:54 AM (PST) Moon Rise:05:51 AM (PST)12/11
Sunset:04:16 PM (PST) Moon Set:03:04 PM (PST)12/11

Copyright © 2014 The Weather Underground, Inc.